Regional Weather Roundup
Issued by NWS Burlington, VT

Home | Current Version | Previous Version | Text Only | Print | Product List | Glossary On
Versions: 1 2 3 4 5 6 7 8 9 10 11 12 13 14 15 16 17 18 19 20 21 22 23 24 25 26 27 28 29 30 31 32 33 34 35 36 37 38 39 40 41 42 43 44 45 46 47 48 49 50
000
ASUS41 KBTV 240130
RWRBTV
VERMONT REGIONAL WEATHER ROUNDUP
NATIONAL WEATHER SERVICE BURLINGTON VT
800 PM EST MON JAN 23 2017

NOTE: "FAIR" INDICATES FEW OR NO CLOUDS BELOW 12,000 FEET WITH NO
SIGNIFICANT WEATHER AND/OR OBSTRUCTIONS TO VISIBILITY.

* THESE REPORTS ARE NOT UNDER NWS QUALITY CONTROL AND/OR DO NOT
  REPORT WEATHER SUCH AS PRECIPITATION AND FOG.

VTZ001>019-240200-
_____VERMONT_____


CITY           SKY/WX    TMP DP  RH WIND       PRES   REMARKS
BURLINGTON     CLOUDY    34  22  61 E5        29.95S WCI  30
MONTPELIER     MOCLDY    30  21  69 SE5       29.97S WCI  25
MORRISVILLE    MOCLDY    30  19  63 SE6       29.97S WCI  24
ST. JOHNSBURY*   N/A     30  19  63 MISG      29.94F
LYNDONVILLE*   FAIR      27  19  72 NE8       29.97R WCI  18
MIDDLEBURY*    FAIR      32  12  43 S7        29.93S WCI  26
RUTLAND*       CLOUDY    30  23  75 E10       29.91S WCI  21
SPRINGFIELD    CLOUDY    30  22  72 E10       29.96S WCI  21
HIGHGATE*      FAIR      31  21  65 E6        29.97R WCI  26
NEWPORT*       FAIR      27  19  69 E9G16     29.99R WCI  18
BENNINGTON     MIX PCPN  33  23  66 VRB5      29.83S WCI  29
SUTTON*          N/A     25 N/A N/A MISG        N/A
ISLAND POND*     N/A     27 N/A N/A E9          N/A  WCI  17
GALLUP MILLS*    N/A     25 N/A N/A MISG        N/A
UNION VILLAGE*   N/A     30 N/A N/A MISG        N/A
MT. MANSFIELD*   N/A     16 N/A N/A S32G44      N/A  WCI  -5

_____LAKE CHAMPLAIN_____


CITY           SKY/WX    TMP DP  RH WIND       PRES   REMARKS
BURTON ISLAND*   N/A     32  27  80 E1          N/A
COLCHESTER RF*   N/A     36  27  69 NE3         N/A
DIAMOND ISL*     N/A     36  25  64 N3          N/A

$$

NYZ007-026>031-035-052-083-087-240200-
_____NORTHERN NEW YORK_____


CITY           SKY/WX    TMP DP  RH WIND       PRES   REMARKS
PLATTSBURGH    MOCLDY    32  24  72 CALM      29.96R
SARANAC LAKE   CLOUDY    28  20  71 NE10      29.82R WCI  19
MASSENA        MOCLDY    30  23  75 NE20G28   29.95R WCI  17
OGDENSBURG*    CLEAR     32  27  80 NE8       29.89F WCI  25
POTSDAM*       CLEAR     30  28  93 E12G17    29.90S WCI  21
STARK FALLS*     N/A     30 N/A N/A E6          N/A  WCI  24
WATERTOWN      CLOUDY    32  29  88 NE9       29.84F WCI  24
FT DRUM        CLOUDY    30  27  88 NE8       29.82S WCI  23
ALBANY         LGTSLEET  34  26  72 N8        29.86F WCI  27
GLENS FALLS    CLOUDY    34  23  64 NE10      29.90F WCI  26

$$
NHZ002-005-011-240200-
_____NEW HAMPSHIRE_____


CITY           SKY/WX    TMP DP  RH WIND       PRES   REMARKS
LEBANON        CLOUDY    31  23  72 NE9       29.96S WCI  23
KEENE          CLOUDY    32  25  75 NE8       29.92R WCI  25
MT WASHINGTON  MOCLDY    14  -8  37 E68G77      N/A  WCI -14
PLYMOUTH       CLOUDY    30  23  75 E9        29.99R WCI  22
WHITEFIELD     CLOUDY    28  17  63 E7        29.95F WCI  21

$$

_____REGIONAL QUEBEC LOCATIONS_____


CITY           SKY/WX    TMP DP  RH WIND       PRES   REMARKS
MONTREAL       MOCLDY    27  19  74 NE17G28   30.01R WCI  14
QUEBEC CITY    MOCLDY    25  19  80 E16G23    30.12F WCI  12
SHERBROOKE     PTCLDY    28  14  54 E7        29.98F WCI  21

_____REGIONAL ONTARIO LOCATIONS_____


CITY           SKY/WX    TMP DP  RH WIND       PRES   REMARKS
OTTAWA         MOCLDY    28  19  69 NE20G25   29.95R WCI  15

______KEY______
VSB  - VISIBILITY IN MILES
WCI  - WIND CHILL INDEX
HX   - HEAT INDEX
$$
NNNN




USA.gov is the U.S. government's official web portal to all federal, state and local government web resources and services.